Bennington, VT

5:46 PM EST on November 23, 2017 (GMT -0500)
Morse State

Weather History for KDDH - December, 2011

Change the Weather History Date:

Monday, December 19, 2011

  Actual Average Record
Temperature  
Mean Temperature 26 °F 26 °F  
Max Temperature 43 °F 34 °F 43 °F (2011)
Min Temperature 10 °F 18 °F 8 °F (2010)
Degree Days  
Heating Degree Days 38 39  
Month to date heating degree days 669  
Since 1 July heating degree days 2282  
Cooling Degree Days 0 0  
Month to date cooling degree days 0  
Year to date cooling degree days 313  
Moisture  
Dew Point 20 °F    
Average Humidity 65    
Maximum Humidity 84    
Minimum Humidity 49    
Precipitation  
Precipitation 0.00 in 0.09 in 0.39 in (2008)
Month to date precipitation 1.77  
Year to date precipitation 39.68  
Sea Level Pressure  
Sea Level Pressure 30.00 in    
Wind  
Wind Speed 3 mph (SW)    
Max Wind Speed 8 mph    
Max Gust Speed -    
Visibility 10 miles    
Events Rain    
T = Trace of Precipitation, MM = Missing Value Source: NWS Daily Summary

Daily Weather History Graph

Daily Weather History Graph

Search for Another Location

Airport or City:

Trip Planner

Search our weather history database for the weather conditions in past years. The results will help you decide how hot, cold, wet, or windy it might be!

Date:

Astronomy

Dec. 19, 2011 Rise Set
Actual Time 7:19 AM EST 4:20 PM EST
Civil Twilight 6:47 AM EST 4:52 PM EST
Nautical Twilight 6:11 AM EST 5:28 PM EST
Astronomical Twilight 5:36 AM EST 6:03 PM EST
Moon 1:20 AM EST (12/19) 12:22 PM EST (12/19)
Length of Visible Light 10h 05m
Length of Day
9h 01m
Waning Crescent, 31% of the Moon is Illuminated
Dec 19
Waning Crescent
Dec 24
New
Jan 1
First Quarter
Jan 9
Full
Jan 16
Last Quarter

Hourly Weather History & Observations

Time (EST) Temp. Windchill Dew Point Humidity Pressure Visibility Wind Dir Wind Speed Gust Speed Precip Events Conditions
12:54 AM 10.9 °F - 7.0 °F 84% 30.24 in 10.0 mi Calm Calm - N/A   Clear
1:54 AM 10.9 °F - 7.0 °F 84% 30.23 in 10.0 mi Calm Calm - N/A   Clear
2:54 AM 12.9 °F - 6.1 °F 74% 30.21 in 10.0 mi Calm Calm - N/A   Clear
3:54 AM 10.9 °F - 7.0 °F 84% 30.19 in 10.0 mi Calm Calm - N/A   Clear
4:54 AM 12.9 °F 6.9 °F 8.1 °F 81% 30.15 in 10.0 mi NE 3.5 mph - N/A   Clear
5:54 AM 15.1 °F - 10.0 °F 80% 30.13 in 10.0 mi Calm Calm - N/A   Scattered Clouds
6:54 AM 19.0 °F - 12.0 °F 74% 30.14 in 10.0 mi Calm Calm - N/A   Clear
7:54 AM 23.0 °F - 14.0 °F 68% 30.11 in 10.0 mi Calm Calm - N/A   Clear
8:54 AM 26.1 °F 20.5 °F 18.0 °F 71% 30.08 in 10.0 mi North 4.6 mph - N/A   Overcast
9:54 AM 30.9 °F 25.2 °F 19.9 °F 64% 30.04 in 10.0 mi SSW 5.8 mph - N/A   Clear
10:54 AM 36.0 °F 30.3 °F 21.0 °F 55% 30.00 in 10.0 mi South 6.9 mph - N/A   Scattered Clouds
11:54 AM 39.0 °F 34.0 °F 21.9 °F 50% 29.95 in 10.0 mi South 6.9 mph - N/A   Clear
12:54 PM 39.9 °F 35.8 °F 23.0 °F 51% 29.92 in 10.0 mi South 5.8 mph - N/A   Overcast
1:54 PM 42.1 °F 39.2 °F 24.1 °F 49% 29.88 in 10.0 mi Variable 4.6 mph - N/A   Overcast
2:54 PM 42.1 °F 37.7 °F 24.1 °F 49% 29.86 in 10.0 mi WSW 6.9 mph - N/A   Overcast
3:54 PM 41.0 °F - 24.1 °F 51% 29.87 in 10.0 mi Calm Calm - N/A   Overcast
4:54 PM 41.0 °F 37.1 °F 25.0 °F 53% 29.88 in 10.0 mi Variable 5.8 mph - N/A   Overcast
5:54 PM 41.0 °F 35.8 °F 26.1 °F 55% 29.90 in 10.0 mi SW 8.1 mph - N/A   Overcast
6:54 PM 41.0 °F 36.4 °F 27.0 °F 57% 29.89 in 10.0 mi SW 6.9 mph - N/A   Overcast
8:54 PM 41.0 °F 38.0 °F 28.9 °F 62% 29.88 in 10.0 mi SSW 4.6 mph - N/A   Overcast
9:54 PM 42.1 °F 39.2 °F 30.0 °F 62% 29.87 in 10.0 mi SW 4.6 mph - N/A   Overcast
10:33 PM 42.8 °F 39.3 °F 32.0 °F 66% 29.85 in 10.0 mi Variable 5.8 mph - N/A   Overcast
10:54 PM 43.0 °F 38.2 °F 32.0 °F 65% 29.86 in 10.0 mi West 8.1 mph - N/A   Overcast
11:54 PM 41.0 °F 36.4 °F 34.0 °F 76% 29.87 in 9.0 mi WNW 6.9 mph - 0.00 in Rain Light Rain